Weather History for EHVK - November, 2012

Change the Weather History Date:

Tuesday, November 20, 2012

  Actual Average Record
Temperature  
Mean Temperature 47 °F -  
Max Temperature 53 °F 43 °F 53 °F (2003)
Min Temperature 39 °F 33 °F 21 °F (1998)
Degree Days  
Heating Degree Days 18    
Moisture  
Dew Point 44 °F    
Average Humidity 91    
Maximum Humidity 100    
Minimum Humidity 77    
Precipitation  
Precipitation 0.00 in - - ()
Sea Level Pressure  
Sea Level Pressure 30.01 in    
Wind  
Wind Speed 7 mph ()    
Max Wind Speed 12 mph    
Max Gust Speed -    
Visibility 4.7 miles    
Events      
Averages and records for this station are not official NWS values.
T = Trace of Precipitation, MM = Missing Value Source: Averaged Metar Reports

Daily Weather History Graph

Daily Weather History Graph

Search for Another Location

Airport or City:

Trip Planner

Search our weather history database for the weather conditions in past years. The results will help you decide how hot, cold, wet, or windy it might be!

Date:

Astronomy

Nov. 20, 2012 Rise Set
Actual Time 8:04 AM CET 4:40 PM CET
Civil Twilight 7:26 AM CET 5:18 PM CET
Nautical Twilight 6:45 AM CET 5:59 PM CET
Astronomical Twilight 6:05 AM CET 6:39 PM CET
Moon 1:08 PM CET (11/20) No Moon Set
Length of Visible Light 9h 51m
Length of Day
8h 35m
Waxing Crescent, 48% of the Moon is Illuminated
Nov 20
Waxing Crescent
Nov 20
First Quarter
Nov 28
Full
Dec 6
Last Quarter
Dec 13
New

Hourly Weather History & Observations

Time (CET) Temp. Windchill Dew Point Humidity Pressure Visibility Wind Dir Wind Speed Gust Speed Precip Events Conditions
12:15 AM 50.0 °F - 48.2 °F 94% 30.01 in 4.3 mi South 6.9 mph - N/A   Overcast
12:19 AM 50.0 °F - 48.2 °F 94% 30.01 in 4.3 mi South 6.9 mph - N/A   Overcast
12:25 AM 48.2 °F - 48.2 °F 100% 30.01 in 4.3 mi South 6.9 mph - N/A   Overcast
12:55 AM 48.2 °F - 46.4 °F 93% 30.01 in 4.3 mi SSE 6.9 mph - N/A   Mostly Cloudy
1:07 AM 48.2 °F - 46.4 °F 93% 30.01 in 3.7 mi SSE 6.9 mph - N/A   Scattered Clouds
1:11 AM 48.2 °F - 46.4 °F 93% 30.01 in 3.7 mi SSE 6.9 mph - N/A   Partly Cloudy
1:25 AM 46.4 °F 43.5 °F 44.6 °F 93% 30.01 in 3.7 mi SSE 5.8 mph - N/A   Overcast
1:55 AM 46.4 °F 42.9 °F 44.6 °F 93% 30.01 in 3.1 mi South 6.9 mph - N/A   Mostly Cloudy
2:25 AM 46.4 °F 43.5 °F 44.6 °F 93% 30.01 in 3.1 mi South 5.8 mph - N/A   Mostly Cloudy
2:32 AM 46.4 °F 43.5 °F 44.6 °F 93% 30.01 in 3.1 mi South 5.8 mph - N/A   Mostly Cloudy
2:38 AM 46.4 °F 42.9 °F 44.6 °F 93% 30.01 in 3.1 mi SSE 6.9 mph - N/A   Scattered Clouds
2:45 AM 46.4 °F 42.9 °F 44.6 °F 93% 30.01 in 3.1 mi SSE 6.9 mph - N/A   Scattered Clouds
2:46 AM 46.4 °F 42.9 °F 44.6 °F 93% 30.01 in 3.1 mi SSE 6.9 mph - N/A   Mostly Cloudy
2:55 AM 46.4 °F 42.4 °F 44.6 °F 93% 30.01 in - SSE 8.1 mph - N/A   Overcast
2:59 AM 46.4 °F 42.4 °F 44.6 °F 93% 30.01 in - SSE 8.1 mph - N/A   Overcast
3:03 AM 46.4 °F 42.9 °F 46.4 °F 100% 30.01 in 3.1 mi SSE 6.9 mph - N/A   Overcast
3:12 AM 46.4 °F 42.9 °F 44.6 °F 93% 30.01 in 3.1 mi SSE 6.9 mph - N/A   Mostly Cloudy
3:16 AM 46.4 °F 42.4 °F 44.6 °F 93% 30.01 in 3.1 mi SSE 8.1 mph - N/A   Partly Cloudy
3:25 AM 44.6 °F 40.7 °F 44.6 °F 100% 30.01 in 3.7 mi SSE 6.9 mph - N/A   Scattered Clouds
3:29 AM 46.4 °F 42.4 °F 44.6 °F 93% 30.01 in 3.7 mi SSE 8.1 mph - N/A   Mostly Cloudy
3:33 AM 46.4 °F 42.4 °F 44.6 °F 93% 30.01 in 3.7 mi SSE 8.1 mph - N/A   Overcast
3:37 AM 46.4 °F 42.4 °F 44.6 °F 93% 30.01 in 3.7 mi SSE 8.1 mph - N/A   Overcast
3:50 AM 46.4 °F 42.9 °F 44.6 °F 93% 30.01 in 3.7 mi South 6.9 mph - N/A   Overcast
3:55 AM 46.4 °F 42.9 °F 44.6 °F 93% 30.01 in 3.7 mi SSE 6.9 mph - N/A   Overcast
4:25 AM 46.4 °F 42.4 °F 44.6 °F 93% 30.01 in 4.3 mi SSE 8.1 mph - N/A   Overcast
4:55 AM 46.4 °F 41.9 °F 44.6 °F 93% 30.01 in 4.3 mi SSE 9.2 mph - N/A   Overcast
5:25 AM 46.4 °F 42.4 °F 44.6 °F 93% 30.01 in 3.7 mi SSE 8.1 mph - N/A   Overcast
5:55 AM 46.4 °F 42.9 °F 44.6 °F 93% 30.01 in 3.7 mi SSE 6.9 mph - N/A   Overcast
6:10 AM 46.4 °F 42.9 °F 44.6 °F 93% 30.01 in 3.1 mi SE 6.9 mph - N/A   Overcast
6:14 AM 46.4 °F 42.9 °F 44.6 °F 93% 30.01 in 3.1 mi SE 6.9 mph - N/A   Mostly Cloudy
6:21 AM 44.6 °F 41.4 °F 42.8 °F 93% 30.01 in 3.1 mi SE 5.8 mph - N/A   Scattered Clouds
6:25 AM 44.6 °F 41.4 °F 42.8 °F 93% 30.01 in - SE 5.8 mph - N/A   Scattered Clouds
6:29 AM 44.6 °F 41.4 °F 42.8 °F 93% 30.01 in 3.1 mi SE 5.8 mph - N/A   Mostly Cloudy
6:35 AM 44.6 °F 41.4 °F 42.8 °F 93% 30.01 in - SE 5.8 mph - N/A   Overcast
6:55 AM 44.6 °F 40.2 °F 42.8 °F 93% 30.01 in - SSE 8.1 mph - N/A   Overcast
7:21 AM 44.6 °F 40.7 °F 42.8 °F 93% 30.01 in 3.1 mi SSE 6.9 mph - N/A   Mostly Cloudy
7:25 AM 44.6 °F 41.4 °F 42.8 °F 93% 30.01 in - SSE 5.8 mph - N/A   Scattered Clouds
7:29 AM 44.6 °F 40.7 °F 42.8 °F 93% 30.01 in 3.1 mi SSE 6.9 mph - N/A   Scattered Clouds
7:33 AM 42.8 °F 38.6 °F 42.8 °F 100% 30.01 in - SSE 6.9 mph - N/A   Scattered Clouds
7:34 AM 42.8 °F 38.6 °F 42.8 °F 100% 30.01 in 3.1 mi SSE 6.9 mph - N/A   Partly Cloudy
7:41 AM 42.8 °F 39.3 °F 42.8 °F 100% 30.01 in - SSE 5.8 mph - N/A   Mist
7:45 AM 42.8 °F 39.3 °F 42.8 °F 100% 30.01 in 3.1 mi SSE 5.8 mph - N/A   Partly Cloudy
7:55 AM 42.8 °F 38.6 °F 42.8 °F 100% 30.01 in 3.1 mi SSE 6.9 mph - N/A   Overcast
8:08 AM 42.8 °F 38.6 °F 42.8 °F 100% 30.01 in 3.1 mi SE 6.9 mph - N/A   Overcast
8:25 AM 42.8 °F 38.6 °F 41.0 °F 93% 30.01 in 3.1 mi SSE 6.9 mph - N/A   Scattered Clouds
8:55 AM 42.8 °F 39.3 °F 41.0 °F 93% 30.04 in 3.1 mi SSE 5.8 mph - N/A   Mostly Cloudy
9:25 AM 44.6 °F 40.2 °F 41.0 °F 87% 30.01 in 3.7 mi SE 8.1 mph - N/A   Overcast
9:30 AM 44.6 °F 40.2 °F 42.8 °F 93% 30.01 in 5.0 mi SSE 8.1 mph - N/A   Overcast
9:36 AM 44.6 °F 39.7 °F 42.8 °F 93% 30.01 in 4.3 mi SSE 9.2 mph - N/A   Overcast
9:40 AM 44.6 °F 39.7 °F 42.8 °F 93% 30.01 in 5.0 mi SSE 9.2 mph - N/A   Overcast
9:44 AM 44.6 °F 39.7 °F 42.8 °F 93% 30.01 in 4.3 mi SSE 9.2 mph - N/A   Overcast
9:48 AM 44.6 °F 39.7 °F 42.8 °F 93% 30.01 in 5.0 mi SSE 9.2 mph - N/A   Overcast
9:55 AM 46.4 °F 41.9 °F 42.8 °F 87% 30.01 in 5.0 mi SSE 9.2 mph - N/A   Overcast
10:08 AM 46.4 °F 41.9 °F 42.8 °F 87% 30.01 in 5.6 mi SSE 9.2 mph - N/A   Overcast
10:25 AM 46.4 °F 41.5 °F 42.8 °F 87% 30.01 in 6.2 mi SSE 10.4 mph - N/A   Overcast
10:55 AM 48.2 °F - 44.6 °F 87% 30.04 in 6.2 mi South 8.1 mph - N/A   Overcast
11:25 AM 48.2 °F - 44.6 °F 87% 30.04 in 6.2 mi South 8.1 mph - N/A   Overcast
11:55 AM 51.8 °F - 46.4 °F 82% 30.01 in 6.2 mi South 10.4 mph - N/A   Overcast
12:25 PM 51.8 °F - 46.4 °F 82% 30.01 in 6.2 mi South 9.2 mph - N/A   Overcast
12:55 PM 53.6 °F - 46.4 °F 77% 30.01 in 6.2 mi South 11.5 mph - N/A   Unknown
1:25 PM 53.6 °F - 46.4 °F 77% 30.01 in 6.2 mi South 8.1 mph - N/A   Unknown
1:55 PM 53.6 °F - 46.4 °F 77% 30.01 in 6.2 mi South 10.4 mph - N/A   Unknown
2:25 PM 53.6 °F - 46.4 °F 77% 30.01 in 6.2 mi South 9.2 mph - N/A   Unknown
2:55 PM 51.8 °F - 46.4 °F 82% 30.01 in 6.2 mi SSE 10.4 mph - N/A   Unknown
3:25 PM 51.8 °F - 46.4 °F 82% 30.01 in 6.2 mi SSE 8.1 mph - N/A   Unknown
3:55 PM 51.8 °F - 46.4 °F 82% 29.98 in 6.2 mi SSE 9.2 mph - N/A   Unknown
4:25 PM 50.0 °F - 46.4 °F 87% 30.01 in 6.2 mi South 6.9 mph - N/A   Unknown
4:55 PM 50.0 °F - 44.6 °F 82% 30.01 in 6.2 mi South 3.5 mph - N/A   Unknown
5:25 PM 48.2 °F - 44.6 °F 87% 30.01 in 6.2 mi SSE 5.8 mph - N/A   Unknown
5:55 PM 48.2 °F - 44.6 °F 87% 30.01 in 6.2 mi SSE 8.1 mph - N/A   Unknown
6:25 PM 46.4 °F 42.4 °F 42.8 °F 87% 30.01 in 6.2 mi SSE 8.1 mph - N/A   Unknown
6:55 PM 46.4 °F 42.4 °F 42.8 °F 87% 30.01 in 6.2 mi SSE 8.1 mph - N/A   Unknown
7:25 PM 46.4 °F 42.4 °F 42.8 °F 87% 30.01 in 6.2 mi SSE 8.1 mph - N/A   Unknown
7:55 PM 44.6 °F 40.2 °F 41.0 °F 87% 30.01 in 6.2 mi SSE 8.1 mph - N/A   Partly Cloudy
8:25 PM 44.6 °F 40.7 °F 41.0 °F 87% 30.01 in 6.2 mi SSE 6.9 mph - N/A   Partly Cloudy
8:55 PM 42.8 °F 37.5 °F 41.0 °F 93% 30.01 in 5.6 mi SSE 9.2 mph - N/A   Mist
9:25 PM 42.8 °F 38.0 °F 41.0 °F 93% 30.01 in 5.6 mi SE 8.1 mph - N/A   Mostly Cloudy
9:55 PM 42.8 °F 37.0 °F 41.0 °F 93% 30.01 in 5.6 mi SE 10.4 mph - N/A   Scattered Clouds
10:25 PM 41.0 °F 35.2 °F 39.2 °F 93% 30.01 in 5.6 mi SSE 9.2 mph - N/A   Partly Cloudy
10:37 PM 41.0 °F 35.2 °F 39.2 °F 93% 30.01 in 5.6 mi SSE 9.2 mph - N/A   Mist
10:39 PM 41.0 °F 35.8 °F 39.2 °F 93% 30.01 in 5.6 mi SSE 8.1 mph - N/A   Mist
10:40 PM 41.0 °F 35.8 °F 39.2 °F 93% 30.01 in 6.2 mi SSE 8.1 mph - N/A   Unknown
10:55 PM 41.0 °F 35.8 °F 39.2 °F 93% 30.01 in 6.2 mi SSE 8.1 mph - N/A   Unknown
11:25 PM 41.0 °F 37.1 °F 39.2 °F 93% 30.01 in 6.2 mi SSE 5.8 mph - N/A   Scattered Clouds
11:55 PM 39.2 °F 34.2 °F 39.2 °F 100% 30.01 in 6.2 mi SE 6.9 mph - N/A   Unknown